GFSFLT1_850_rhum_162.txt.gz
RH
40 42 43 41 43 41 39 41 43 39 39 40 42 43 44 47 46 44 46 49 48 49 50 50 50 52 52 56 60 60 69 66
44 46 48 45 47 48 47 49 42 34 31 32 36 39 46 46 47 48 45 47 51 55 59 59 66 71 76 82 88 97 99 98
51 51 50 47 50 54 52 48 37 26 28 33 38 44 47 47 44 45 50 53 60 66 70 73 81 87 91 89 92 95 96 98
54 56 54 59 61 60 52 47 33 22 32 33 31 35 35 28 28 43 52 56 61 68 75 81 88 90 92 93 94 98 99 92
58 58 59 61 63 60 52 50 32 17 19 16 11 12 14 15 18 33 43 56 63 68 74 80 86 89 93 96 98 100 100 99
60 62 61 63 63 61 52 48 39 15 11 12 12 15 12 8 7 19 22 46 58 67 73 76 83 90 97 100 99 100 100 100
61 63 65 66 68 69 61 50 37 26 13 10 12 14 8 7 6 6 9 18 35 50 70 76 80 85 91 98 99 100 100 100
57 61 68 69 71 72 67 54 38 29 15 10 10 9 6 5 4 4 5 6 10 20 46 74 78 85 89 94 97 99 100 100
56 63 69 71 71 69 68 58 36 27 16 11 9 7 5 4 4 4 4 5 7 10 18 39 61 77 85 87 94 98 99 100
54 62 69 66 64 65 59 49 30 26 15 9 7 7 6 7 6 5 4 5 6 7 8 7 8 24 74 85 87 93 96 97
58 59 61 60 60 51 37 20 20 18 11 8 8 10 11 13 13 7 5 6 6 6 5 4 6 9 17 40 80 93 95 96
55 58 62 62 60 43 33 10 9 15 15 13 18 19 18 23 23 16 8 6 8 7 5 4 4 5 10 11 13 31 79 95
61 61 64 66 56 37 34 14 9 8 11 24 32 31 31 38 35 24 14 7 8 10 7 4 4 5 5 6 8 9 9 19
70 70 71 67 38 31 26 21 13 21 21 36 42 43 43 46 40 30 20 8 7 10 10 6 5 6 6 6 6 7 8 9
75 77 76 55 26 18 11 13 18 40 42 45 45 45 47 46 45 37 24 12 7 9 10 12 6 7 6 6 5 5 7 9
88 83 82 72 26 12 16 16 27 46 47 51 48 49 48 43 40 30 19 11 6 8 10 13 10 9 7 6 7 6 6 8
96 95 95 69 23 33 13 28 39 44 46 52 55 50 45 38 32 24 10 8 6 6 6 8 8 11 8 7 7 8 7 8
91 84 84 59 42 16 38 50 52 53 52 55 54 48 47 41 27 18 9 8 8 7 6 6 6 7 8 7 10 10 14 13
82 74 72 53 25 42 52 53 53 54 54 53 52 49 45 38 32 24 17 19 17 12 11 10 7 7 9 11 12 16 22 31

GFSFLT1_850_rhum_165.txt.gz
RH
50 50 48 45 40 39 38 38 38 36 34 34 36 39 41 41 38 33 35 38 39 40 42 44 45 48 46 50 55 56 65 66
54 52 49 47 44 44 43 44 38 32 31 35 40 39 39 34 26 31 35 38 43 46 50 53 58 61 71 78 84 78 78 88
62 56 52 50 48 50 47 43 34 26 30 32 31 33 28 20 22 26 31 38 42 49 55 60 65 70 78 85 91 96 97 97
64 60 56 57 56 55 51 42 29 21 22 20 23 23 17 11 12 18 23 32 36 46 57 60 66 72 77 84 89 96 99 93
66 64 63 64 61 60 53 45 28 15 16 17 15 13 8 6 6 12 13 19 24 32 48 56 64 69 74 83 93 97 100 99
66 63 62 66 63 62 54 47 39 21 13 11 13 12 7 6 6 6 6 8 11 15 32 49 59 72 77 81 86 92 98 100
60 66 66 60 58 64 60 51 38 25 15 9 9 7 6 5 5 4 4 4 5 7 12 22 33 63 74 81 87 94 95 98
63 63 62 64 60 65 65 57 44 24 15 10 8 6 5 5 4 4 4 4 4 4 4 5 10 49 74 80 85 91 93 94
56 54 66 66 68 71 62 56 44 20 14 10 8 6 6 6 5 4 4 4 4 4 4 5 8 19 39 60 78 84 89 92
59 70 70 69 69 65 63 52 29 15 12 9 8 9 10 10 8 5 4 5 5 4 3 3 6 8 9 11 33 82 91 94
64 70 73 71 68 66 58 32 16 15 10 10 11 14 15 16 14 7 5 6 6 4 3 3 4 5 6 6 6 24 73 91
59 66 70 66 66 62 45 21 10 15 16 17 20 21 22 22 18 10 6 7 7 6 4 4 4 4 4 5 5 8 10 18
59 64 66 65 63 60 38 18 9 10 16 22 28 28 25 23 24 16 7 6 8 8 6 4 4 4 4 4 4 7 9 10
61 65 68 67 66 53 32 16 9 11 17 29 34 33 33 29 27 22 10 6 8 10 10 5 4 5 5 4 5 6 7 9
66 68 69 69 66 43 26 18 16 22 28 34 38 35 38 36 30 22 11 6 9 10 11 10 6 5 6 7 6 6 6 8
75 71 72 72 61 37 23 20 20 27 32 38 42 39 39 39 31 17 10 6 8 10 11 9 6 6 6 10 10 8 7 8
88 77 76 75 62 39 15 22 22 29 36 40 40 44 47 41 28 12 8 7 7 7 7 8 6 7 8 10 14 14 12 10
99 87 80 81 77 39 23 22 23 34 43 44 47 50 49 38 23 10 12 11 11 10 9 9 8 10 13 15 17 19 23 22
91 90 92 94 80 28 23 27 39 44 46 46 51 52 50 41 30 21 22 21 14 14 15 14 12 10 15 19 22 24 28 35

GFSFLT1_850_rhum_168.txt.gz
RH
52 51 49 46 41 38 39 38 36 35 33 33 33 33 32 27 18 16 18 21 24 27 30 34 36 38 42 48 57 64 66 68
55 55 52 47 43 44 43 41 37 33 32 34 33 29 22 14 11 14 20 25 27 30 33 31 31 36 44 56 65 72 78 86
65 62 57 52 48 49 45 42 34 29 31 28 25 20 13 8 9 12 16 20 25 29 30 29 27 37 46 55 67 75 78 85
69 65 61 59 55 49 46 41 30 25 24 19 16 13 9 7 6 8 8 10 12 20 27 25 20 37 50 61 70 79 84 83
69 70 66 58 54 52 48 42 28 18 16 16 14 10 7 6 6 6 6 6 6 6 13 18 17 43 54 63 74 83 90 92
71 65 61 63 60 57 55 48 38 24 15 12 9 8 6 5 5 5 5 5 5 4 5 6 10 42 51 58 72 80 88 94
68 64 65 64 66 64 63 54 42 27 16 9 7 6 6 5 5 5 5 4 4 4 4 4 8 21 27 39 69 79 83 88
62 60 63 64 66 68 66 60 47 29 16 9 7 6 6 6 5 5 4 4 4 3 3 3 4 6 8 16 48 76 85 87
54 56 64 69 71 65 67 61 50 26 13 9 7 6 7 7 6 5 5 4 4 3 3 3 4 5 5 6 20 58 86 91
70 73 68 66 63 65 64 60 43 19 12 8 7 7 8 9 9 6 5 5 4 4 3 3 4 5 4 5 6 10 33 61
66 64 66 68 69 69 65 60 32 17 10 8 8 9 11 14 13 7 6 7 6 4 4 4 4 4 4 5 5 8 9 15
62 63 68 71 74 73 66 47 21 13 10 10 11 14 16 22 17 8 7 7 7 6 4 4 4 4 4 4 5 6 7 8
59 62 69 74 76 69 61 38 18 13 13 15 17 20 22 29 20 11 6 6 8 8 6 4 4 5 5 5 5 6 6 6
59 65 72 76 73 66 60 33 17 14 17 21 24 25 29 30 19 10 5 6 7 10 8 5 4 6 8 7 7 7 7 7
63 67 72 76 70 68 54 27 14 17 24 31 30 30 32 29 19 11 6 7 8 9 8 6 5 7 12 13 11 9 8 9
67 70 70 75 72 71 49 25 19 26 33 38 38 34 34 30 20 10 7 8 8 9 8 7 7 8 12 19 18 14 10 9
71 79 73 72 72 69 50 30 23 33 38 40 38 38 38 29 18 9 9 9 10 10 10 11 10 12 16 19 23 22 18 13
78 81 77 71 71 69 48 28 27 38 41 40 39 42 42 32 16 12 13 13 15 15 15 14 15 16 19 22 26 26 27 28
90 99 86 75 75 68 44 24 37 41 43 40 43 46 45 37 22 18 22 19 18 18 18 20 19 18 21 27 30 30 30 32

GFSFLT1_850_rhum_174.txt.gz
RH
69 67 65 53 43 39 35 35 35 33 32 31 30 28 23 14 10 9 8 9 9 11 12 13 15 15 16 15 17 32 54 38
71 70 61 54 45 41 39 39 36 34 35 36 33 26 14 9 8 7 7 6 6 5 6 8 10 12 12 12 13 31 62 42
71 74 72 68 53 44 42 40 37 34 36 33 29 18 10 8 7 6 6 5 5 5 5 5 5 7 11 10 14 35 59 74
70 72 73 73 51 46 44 42 36 32 30 27 21 14 10 12 7 6 5 5 5 5 4 4 5 7 8 9 19 39 57 75
66 70 74 70 52 48 48 43 36 30 24 21 16 34 38 7 6 5 5 5 5 4 4 4 4 4 6 12 22 39 39 84
64 70 70 71 54 56 51 45 38 28 20 16 14 11 6 6 5 5 5 5 4 4 4 4 4 3 5 9 17 24 35 67
64 70 70 75 65 58 53 49 43 34 25 18 12 8 6 6 6 12 7 5 4 4 4 4 3 3 4 6 14 28 26 56
64 67 70 75 72 61 55 54 49 39 26 14 8 6 6 7 14 9 9 7 4 4 4 4 4 4 4 7 16 24 20 39
62 63 67 75 82 70 59 57 53 40 23 12 8 8 9 9 8 7 6 5 4 4 4 4 4 4 5 9 13 14 34 62
61 63 69 78 81 71 61 59 55 41 20 11 9 9 10 10 9 8 6 5 4 4 4 4 4 4 5 6 7 15 24 40
61 65 76 80 82 79 66 62 59 42 20 12 10 12 15 13 10 7 6 6 5 5 5 5 5 5 5 6 10 10 13 29
68 71 81 86 81 85 67 65 61 44 21 13 14 17 16 13 10 8 8 8 7 5 5 5 6 6 6 7 7 8 10 10
73 86 85 87 72 86 76 68 62 44 20 15 17 18 16 14 11 8 9 9 8 5 5 7 9 9 9 9 9 9 8 8
62 72 78 69 84 76 72 69 64 45 20 15 22 21 20 16 10 8 8 8 8 6 6 9 12 13 13 12 11 10 10 9
77 65 71 71 74 72 74 72 68 43 20 21 26 29 26 18 10 8 9 9 8 7 8 11 15 18 18 17 14 13 12 12
54 77 89 68 77 78 76 76 68 40 21 36 32 34 34 21 10 9 12 11 9 9 12 15 18 20 22 36 22 18 16 15
46 62 76 85 84 93 93 84 66 42 35 43 61 51 38 25 12 15 20 18 18 29 34 23 24 23 23 24 49 31 23 22
46 56 69 82 89 92 92 83 82 48 84 85 57 55 39 29 19 26 30 38 52 50 66 73 66 24 24 26 29 69 72 71
65 70 76 82 87 92 91 89 75 87 75 53 84 46 46 40 39 48 41 63 62 72 74 79 56 22 23 26 34 80 83 80

GFSFLT1_850_rhum_180.txt.gz
RH
56 59 58 55 62 67 70 58 40 40 42 47 49 53 50 35 17 11 9 8 7 6 6 6 7 9 7 6 8 17 34 13
55 57 55 55 65 72 76 63 49 49 57 63 62 62 44 21 11 9 8 7 5 5 6 6 6 10 8 7 9 19 42 14
56 57 56 59 67 70 74 72 59 62 60 57 58 59 54 22 12 9 7 6 5 6 6 6 7 12 12 11 12 20 59 23
56 58 60 62 68 68 72 72 68 59 57 54 48 30 22 34 40 18 7 6 6 6 6 6 7 10 13 16 15 18 50 44
56 59 62 66 67 69 65 68 66 60 49 41 35 42 47 46 34 14 8 6 6 6 6 6 7 10 12 21 17 16 24 34
54 58 63 66 67 68 67 68 65 50 54 54 49 44 43 25 14 9 8 8 6 6 6 6 6 7 10 16 17 14 15 22
51 57 61 65 68 71 71 68 62 45 39 38 34 29 23 15 14 17 14 10 9 7 7 7 6 7 11 18 23 20 27 25
44 54 58 62 68 72 73 68 62 46 31 25 26 21 25 20 22 26 25 22 14 9 8 8 9 14 16 29 39 52 60 62
42 52 57 60 69 75 74 66 60 45 35 35 27 19 20 24 30 27 27 22 14 10 10 10 12 16 27 60 59 62 65 59
42 50 56 60 68 74 72 66 57 51 45 36 23 32 30 24 22 22 20 17 12 11 13 13 17 23 58 52 38 59 62 56
42 47 54 59 67 74 74 66 56 54 48 36 27 28 27 23 24 25 20 15 17 14 16 18 20 20 29 33 27 37 40 49
43 47 53 58 66 73 77 69 59 56 50 43 32 25 27 29 23 23 21 18 18 19 14 11 14 15 10 10 15 14 16 22
47 47 53 60 66 74 82 76 65 59 55 46 36 31 29 28 26 23 20 22 18 14 11 10 10 11 12 11 11 13 14 14
53 52 55 62 72 74 84 85 75 62 58 49 39 28 28 23 26 17 15 16 12 9 8 10 12 13 13 14 14 15 15 15
60 56 61 64 72 77 83 90 83 65 66 55 39 23 20 24 16 12 9 9 9 7 9 13 15 16 16 16 17 18 19 19
55 59 70 69 75 83 85 91 94 76 71 58 42 18 19 18 14 11 9 8 8 8 12 18 19 21 20 22 27 30 29 26
19 56 66 75 78 85 89 92 98 86 82 71 37 25 23 21 15 13 13 9 9 11 17 21 21 26 30 53 67 52 57 58
26 27 50 64 71 85 92 94 99 93 93 85 43 61 53 33 27 28 41 22 21 40 46 41 25 25 37 63 74 77 73 66
26 31 37 60 60 83 94 95 98 93 89 85 75 75 69 64 44 72 71 71 76 82 87 85 33 25 36 56 74 75 50 42

GFSFLT1_850_rhum_186.txt.gz
RH
74 76 76 68 68 71 72 69 64 64 64 55 46 43 39 35 26 19 16 14 12 12 10 8 9 12 10 8 8 7 7 23
74 75 68 64 65 69 69 67 64 57 54 50 48 42 42 36 25 16 12 11 11 10 9 9 11 11 9 8 7 7 9 38
70 66 64 65 67 67 65 63 52 54 56 50 47 45 43 34 18 13 11 10 9 9 9 10 11 11 9 8 7 6 10 60
68 65 64 66 65 63 62 56 53 45 44 48 52 50 41 27 16 12 10 9 8 9 10 10 10 10 9 8 6 6 6 12
66 65 64 63 61 60 59 58 49 47 56 59 52 46 40 29 18 14 10 9 9 10 10 10 10 9 8 7 6 6 6 7
64 62 61 62 60 61 61 58 54 58 65 63 59 57 48 26 30 18 10 10 10 10 10 11 10 9 8 8 6 6 6 8
69 67 63 64 63 62 65 61 59 62 64 63 62 58 43 34 38 18 12 11 10 11 11 11 9 8 8 8 8 8 8 9
70 70 66 67 67 66 68 66 64 64 62 59 55 48 42 42 40 17 16 14 13 13 12 10 8 8 9 9 10 10 12 14
74 67 66 66 65 68 70 68 68 67 63 59 47 44 47 46 37 19 19 18 17 14 12 10 9 9 10 12 13 14 16 19
68 68 69 67 67 68 68 67 68 66 62 56 54 53 47 41 24 23 24 23 18 13 11 9 9 10 12 14 17 19 18 20
77 70 70 65 67 68 68 67 66 65 58 53 52 44 36 30 28 28 28 23 18 14 10 10 10 13 16 16 18 22 24 20
73 71 64 64 67 65 67 69 68 65 52 40 39 37 34 33 33 34 29 20 17 14 10 11 11 14 18 18 19 22 23 21
74 72 64 67 66 68 70 69 65 60 53 44 44 39 37 38 36 33 24 20 19 13 11 12 14 14 18 19 17 18 18 17
70 77 74 64 65 67 69 67 65 64 56 49 46 43 43 41 36 28 25 22 18 14 13 12 15 15 13 16 16 15 15 15
54 55 67 63 60 65 67 67 67 66 59 52 47 45 45 42 37 34 30 27 18 16 14 12 15 18 14 15 15 15 16 16
54 50 58 59 62 65 67 66 69 68 64 57 52 46 46 48 48 44 35 26 22 19 14 13 15 17 16 16 17 17 17 17
40 39 48 62 60 62 64 68 71 68 66 62 57 57 71 57 46 52 38 24 27 18 14 14 16 18 19 22 24 22 21 21
32 39 49 51 57 60 62 68 72 69 70 69 66 76 68 52 50 51 39 22 22 12 17 18 21 25 24 27 28 24 23 27
50 67 64 57 68 65 66 72 74 73 74 78 75 64 62 58 53 45 24 19 12 15 22 30 36 40 34 32 29 30 32 34